{"data":{"norad_id":48056,"epoch":"2026-09-20T01:07:54.503040Z","epoch_age_seconds":64896,"freshness":"FRESH","line1":"1 48056U 21025Q   26263.04715860 -.00000094  00000+0 -29205-3 0  9998","line2":"2 48056  87.8917 301.3493 0001947  98.7612 261.3738 13.13468770265993","mean_motion":13.1346877,"eccentricity":0.0001947,"inclination_deg":87.8917,"raan_deg":301.3493,"arg_perigee_deg":98.7612,"mean_anomaly_deg":261.3738,"bstar":-0.00029205,"rev_number":26599,"period_min":109.63336417964,"perigee_km":1208.2927715158,"apogee_km":1211.2475025549,"semimajor_km":7587.9071370353,"source":"CELESTRAK","updated_at":"2026-09-20T09:00:44.586813Z"}}